Location: Seven Kings
(51.5667°N, 0.1000°E)
Time: 03:36:43
(UTC+00:00)

HJ-1C - Pass Details

Date: 29 October 2020
Orbit: 430 x 444 km, 97.1° (Epoch: 24 November)

Event Time Altitude Azimuth Distance (km) Brightness Sun altitude
Exits shadow 18:22:32 33° 45° (NE) 775 4.2 -16.8°
Drops below altitude 10° 18:25:05 10° 2° (N) 1,584 6.1 -17.2°
Sets 18:27:13 0° 354° (N) 2,460 7.2 -17.6°
